Regional Weather Roundup
Issued by NWS Newport/Morehead, NC

Current Version | Previous Version | Graphics & Text | Print | Product List | Glossary Off
Versions: 1 2 3 4 5 6 7 8 9 10 11 12 13 14 15 16 17 18 19 20 21 22 23 24 25 26 27 28 29 30 31 32 33 34 35 36 37 38 39 40 41 42 43 44 45 46 47 48 49 50

000
ASUS42 KMHX 010812
RWRMHX
WEATHER ROUNDUP FOR EASTERN NORTH CAROLINA
NATIONAL WEATHER SERVICE NEWPORT/MOREHEAD CITY NC
300 AM EST SUN MAR 01 2015

NOTE: "FAIR" INDICATES FEW OR NO CLOUDS BELOW 12,000 FEET
WITH NO SIGNIFICANT WEATHER AND/OR OBSTRUCTIONS TO VISIBILITY

NCZ015>017-031-032-045>047-102-103-010900-
NORTH COAST

CITY           SKY/WX    TMP DP  RH WIND       PRES   REMARKS
EDENTON        MOCLDY    29  22  74 NE6       30.63F
ELIZABETH CITY PTCLDY    31  24  75 NE10      30.64F
KITTY HAWK     SUNNY     35  32  88 N9        30.60F
MANTEO         CLEAR     36  30  80 N12       30.61F

$$

NCZ045>047-081-094-103-104-010900-
CENTRAL COAST

CITY           SKY/WX    TMP DP  RH WIND       PRES   REMARKS
FRISCO         PTCLDY    37  35  92 NE8       30.59F
SWANQUARTER      N/A     32 N/A N/A NE14      30.56S

$$

NCZ095-097-098-100-101-010900-
SOUTHERN COAST

CITY           SKY/WX    TMP DP  RH WIND       PRES   REMARKS
BEAUFORT       CLOUDY    36  31  82 NE10      30.57F
CEDAR ISLAND     N/A     36 N/A N/A N9G16     30.62F
JACKSONVILLE   CLOUDY    35  26  69 N9        30.59F
PINEY ISLAND     N/A    N/A N/A N/A MISG      30.59F
WILMINGTON     CLOUDY    37  27  67 N8        30.57F


$$

NCZ011>013-027>030-043-044-078>080-089-090>093-098-010900-
COASTAL PLAIN

CITY           SKY/WX    TMP DP  RH WIND       PRES   REMARKS
AHOSKIE        CLOUDY    27  19  72 N5        30.66F
CLINTON        LGT RAIN  34  26  74 NE6       30.59F
ELIZABETHTOWN  LGT RAIN  36  26  67 N3        30.57F
GOLDSBORO      CLOUDY    32  28  83 NE6       30.59F
GREENVILLE     CLOUDY    32  21  64 N5        30.62F
HAVELOCK       PTCLDY    35  27  72 N10       30.60F
KENANSVILLE    CLOUDY    33  23  67 NE3       30.60F
KINSTON        MOCLDY    32  22  66 N5        30.62F
NEW BERN       CLOUDY    32  24  72 N7        30.61F
RICHLANDS      CLOUDY    34  25  69 N10       30.60F
ROCKY MOUNT    CLOUDY    31  18  58 NE7       30.62F
WASHINGTON     CLOUDY    30  20  67 NE5       30.62F
WHITEVILLE     LGT RAIN  36  27  70 N5        30.57F

$$

AMZ130-135-150-152-154-156-158-170-250-252-270-ANZ085-086-088-633-658-670-010900-
MARINE OBSERVATIONS

STATION/POSITION TIME  TEMP    WIND        PRES    WAVE   SWELL
                       AIR SEA DIR/SP/G            HT/PER HT/PER
                 (UTC) (F)     (DEG/KT/KT) (MB)    (FT/S) (FT/S)
CHESAPEAKE LIGHT 0700   33      50/ 15/ 16 1039.3
64 E VA BEACH    0750   47 65   60/ 12/ 16 1036.6    4/ 9   3/ 9
DUCK             0700   35 34   20/ 15/ 18 1036.8
2 E DUCK         0711      34                N/A     4/ 6   2/11
10 NE DUCK       0722      37                N/A     4/ 5
OREGON INLET     0700   36 39  360/ 10/ 14 1037.1
HATTERAS CG      0700   37 39   30/ 12/ 17 1036.8
CAPE LOOKOUT     0800   39      40/ 17/ 19 1034.7
BEAUFORT LAB     0700   36 40   10/ 11/ 15 1035.6
27 SE WRIGHTSVLE NOT AVBL
5 SE WRIGHTSVLE  NOT AVBL
225 S CAPE HAT   0750   66 70   80/ 21/ 25 1032.1   10/ 9
41 SE CHARLESTON 0750   58 67   30/ 23/ 27 1030.4   10/ 8

$$



USA.gov is the U.S. government's official web portal to all federal, state and local government web resources and services.